Tracking 29892 objects as of 21-Nov-2024
HD Live streaming from Space Station
objects crossing your sky now

FENGYUN 1C DEB

Track FENGYUN 1C DEB now!
10-day predictions


NORAD ID: 29938
Int'l Code: 1999-025JL
Perigee: 852.4 km
Apogee: 900.3 km
Inclination: 98.8 °
Period: 102.3 minutes
Semi major axis: 7247 km
RCS: 0.0915 m2 (small)
Launch date: May 10, 1999
Source: People's Republic of China (PRC)
Launch site: Taiyaun Space Center, China (TSC)

Note: This is SATELLITE DEBRIS
Your satellite tracking list
Your tracking list is empty




NASA's NSSDC Master Catalog

Two Line Element Set (TLE):
1 29938U 99025JL  24325.94067955  .00000493  00000-0  31896-3 0  9993
2 29938  98.7783 320.5061 0033084 319.8389  69.2704 14.07127332916184
Source of the keplerian elements: AFSPC